| time (UTC) | temp F | wind direction | speed MPH | gust MPH | rain 1hr in | rain 24hr in | rain mn in | humidity % | barometer mb |
| 20260904051506 | 52 | 329 | 0.0 | 0.0 | 0.01 | 0.48 | 0.41 | 96 | 999.0 |
| 20260904050001 | 52 | 331 | 0.0 | 0.0 | 0.01 | 0.48 | 0.41 | 96 | 999.1 |
| 20260904044600 | 52 | 331 | 0.0 | 0.0 | 0.01 | 0.48 | 0.41 | 96 | 999.1 |
| 20260904043103 | 52 | 331 | 0.0 | 0.0 | 0.01 | 0.48 | 0.41 | 96 | 999.2 |
| 20260904041559 | 52 | 327 | 0.0 | 0.0 | 0.00 | 0.47 | 0.40 | 96 | 999.2 |
| 20260904040107 | 52 | 326 | 0.0 | 0.0 | 0.02 | 0.47 | 0.40 | 96 | 999.4 |
| 20260904034557 | 53 | 328 | 0.0 | 0.0 | 0.03 | 0.47 | 0.40 | 96 | 999.5 |
| 20260904033054 | 53 | 328 | 0.0 | 0.0 | 0.05 | 0.47 | 0.40 | 96 | 999.6 |
| 20260904031557 | 53 | 329 | 0.0 | 2.0 | 0.10 | 0.47 | 0.40 | 96 | 999.7 |
| 20260904030054 | 53 | 339 | 0.0 | 0.0 | 0.17 | 0.45 | 0.38 | 96 | 999.8 |
| 20260904024551 | 53 | 10 | 0.0 | 1.0 | 0.26 | 0.44 | 0.37 | 96 | 999.9 |
| 20260904023049 | 53 | 318 | 0.0 | 3.0 | 0.26 | 0.41 | 0.34 | 96 | 1000.1 |
| 20260904021549 | 53 | 39 | 1.0 | 3.0 | 0.22 | 0.36 | 0.28 | 96 | 1000.0 |
| 20260904020049 | 53 | 51 | 3.0 | 5.0 | 0.15 | 0.27 | 0.20 | 96 | 1000.1 |
| 20260904014544 | 53 | 41 | 0.0 | 8.0 | 0.06 | 0.17 | 0.10 | 96 | 1000.3 |
| 20260904013046 | 53 | 326 | 0.0 | 3.0 | 0.07 | 0.15 | 0.08 | 96 | 1000.5 |
| 20260904011545 | 54 | 339 | 0.0 | 1.0 | 0.07 | 0.14 | 0.07 | 95 | 1000.6 |
| 20260904010040 | 54 | 37 | 1.0 | 3.0 | 0.05 | 0.12 | 0.05 | 95 | 1000.6 |
| 20260904004539 | 54 | 41 | 0.0 | 0.0 | 0.04 | 0.11 | 0.04 | 95 | 1000.7 |
| 20260904003036 | 54 | 274 | 0.0 | 0.0 | 0.00 | 0.07 | 0.00 | 95 | 1000.8 |
| 20260904001533 | 54 | 273 | 0.0 | 0.0 | 0.00 | 0.07 | 0.00 | 95 | 1001.1 |
| 20260904000032 | 54 | 269 | 0.0 | 0.0 | 0.00 | 0.07 | 0.00 | 95 | 1001.2 |
| 20260903234531 | 54 | 237 | 0.0 | 0.0 | 0.00 | 0.07 | 0.00 | 95 | 1001.3 |
| 20260903233029 | 54 | 233 | 0.0 | 0.0 | 0.00 | 0.07 | 0.00 | 94 | 1001.3 |
| 20260903231533 | 54 | 231 | 0.0 | 0.0 | 0.00 | 0.07 | 0.00 | 94 | 1001.5 |
| 20260903230036 | 54 | 224 | 0.0 | 0.0 | 0.00 | 0.07 | 0.00 | 94 | 1001.7 |
| 20260903224532 | 54 | 224 | 0.0 | 0.0 | 0.00 | 0.07 | 0.00 | 94 | 1001.9 |
| 20260903223027 | 54 | 224 | 0.0 | 0.0 | 0.00 | 0.07 | 0.00 | 93 | 1002.0 |
| 20260903221521 | 54 | 224 | 0.0 | 0.0 | 0.00 | 0.07 | 0.00 | 93 | 1002.0 |
| 20260903220026 | 54 | 224 | 0.0 | 0.0 | 0.00 | 0.07 | 0.00 | 93 | 1002.2 |
| 20260903214528 | 55 | 224 | 0.0 | 0.0 | 0.00 | 0.07 | 0.07 | 93 | 1002.2 |
| 20260903213016 | 55 | 224 | 0.0 | 0.0 | 0.00 | 0.07 | 0.07 | 93 | 1002.4 |
| 20260903211527 | 55 | 224 | 0.0 | 0.0 | 0.00 | 0.07 | 0.07 | 93 | 1002.4 |
| 20260903210019 | 55 | 224 | 0.0 | 0.0 | 0.00 | 0.07 | 0.07 | 93 | 1002.4 |
| 20260903204514 | 55 | 224 | 0.0 | 0.0 | 0.00 | 0.07 | 0.07 | 92 | 1002.4 |
| 20260903203012 | 56 | 224 | 0.0 | 0.0 | 0.00 | 0.07 | 0.07 | 91 | 1002.6 |
| 20260903201513 | 56 | 224 | 0.0 | 0.0 | 0.00 | 0.07 | 0.07 | 90 | 1002.9 |
| 20260903200009 | 56 | 224 | 0.0 | 0.0 | 0.00 | 0.07 | 0.07 | 90 | 1003.0 |
| 20260903194507 | 56 | 224 | 0.0 | 0.0 | 0.01 | 0.07 | 0.07 | 90 | 1003.2 |
| 20260903193005 | 57 | 224 | 0.0 | 0.0 | 0.01 | 0.07 | 0.07 | 90 | 1003.2 |
| 20260903191505 | 57 | 224 | 0.0 | 0.0 | 0.02 | 0.07 | 0.07 | 90 | 1003.3 |
| 20260903190004 | 58 | 224 | 0.0 | 0.0 | 0.02 | 0.07 | 0.07 | 88 | 1003.4 |
| 20260903184502 | 58 | 224 | 0.0 | 0.0 | 0.02 | 0.06 | 0.06 | 88 | 1003.4 |
| 20260903183100 | 58 | 224 | 0.0 | 0.0 | 0.03 | 0.06 | 0.06 | 88 | 1003.6 |
| 20260903181603 | 58 | 224 | 0.0 | 0.0 | 0.03 | 0.05 | 0.05 | 87 | 1003.7 |
| 20260903180059 | 59 | 224 | 0.0 | 0.0 | 0.04 | 0.05 | 0.05 | 86 | 1003.7 |
| 20260903174558 | 59 | 224 | 0.0 | 0.0 | 0.03 | 0.04 | 0.04 | 86 | 1003.7 |
| 20260903173057 | 59 | 224 | 0.0 | 0.0 | 0.03 | 0.03 | 0.03 | 86 | 1003.9 |
| 20260903171557 | 59 | 224 | 0.0 | 0.0 | 0.02 | 0.02 | 0.02 | 86 | 1003.7 |
| 20260903170104 | 59 | 224 | 0.0 | 0.0 | 0.01 | 0.01 | 0.01 | 85 | 1003.7 |
| 20260903164556 | 59 | 224 | 0.0 | 0.0 | 0.01 | 0.01 | 0.01 | 85 | 1003.7 |
| 20260903163054 | 60 | 210 | 0.0 | 0.0 | 0.00 | 0.00 | 0.00 | 84 | 1003.9 |
| 20260903161552 | 60 | 210 | 0.0 | 5.0 | 0.00 | 0.00 | 0.00 | 83 | 1004.0 |
| 20260903160051 | 60 | 233 | 3.0 | 10.0 | 0.00 | 0.00 | 0.00 | 80 | 1004.2 |
| 20260903154557 | 61 | 205 | 3.0 | 8.0 | 0.00 | 0.00 | 0.00 | 77 | 1004.4 |
| 20260903153103 | 62 | 210 | 3.0 | 8.0 | 0.00 | 0.00 | 0.00 | 75 | 1004.6 |
| 20260903151547 | 62 | 210 | 3.0 | 5.0 | 0.00 | 0.00 | 0.00 | 70 | 1004.6 |
| 20260903150100 | 62 | 205 | 3.0 | 8.0 | 0.00 | 0.00 | 0.00 | 67 | 1004.7 |
| 20260903144545 | 62 | 205 | 2.0 | 6.0 | 0.00 | 0.00 | 0.00 | 64 | 1004.7 |
| 20260903143055 | 62 | 210 | 4.0 | 8.0 | 0.00 | 0.00 | 0.00 | 62 | 1004.8 |
| 20260903141545 | 63 | 227 | 2.0 | 5.0 | 0.00 | 0.00 | 0.00 | 61 | 1004.8 |
| 20260903140042 | 62 | 200 | 3.0 | 8.0 | 0.00 | 0.00 | 0.00 | 59 | 1004.8 |
| 20260903134540 | 63 | 205 | 3.0 | 8.0 | 0.00 | 0.00 | 0.00 | 60 | 1005.0 |
| 20260903133040 | 64 | 214 | 4.0 | 9.0 | 0.00 | 0.00 | 0.00 | 56 | 1004.9 |
| 20260903131538 | 65 | 218 | 3.0 | 8.0 | 0.00 | 0.00 | 0.00 | 56 | 1005.1 |
| 20260903130038 | 65 | 196 | 1.0 | 11.0 | 0.00 | 0.00 | 0.00 | 59 | 1005.2 |
| 20260903124536 | 65 | 220 | 2.0 | 10.0 | 0.00 | 0.00 | 0.00 | 58 | 1005.3 |
| 20260903123034 | 66 | 210 | 5.0 | 10.0 | 0.00 | 0.00 | 0.00 | 55 | 1005.4 |
| 20260903121533 | 65 | 235 | 3.0 | 9.0 | 0.00 | 0.00 | 0.00 | 54 | 1005.5 |
| 20260903120038 | 65 | 200 | 4.0 | 9.0 | 0.00 | 0.00 | 0.00 | 58 | 1005.5 |
| 20260903114531 | 65 | 200 | 1.0 | 9.0 | 0.00 | 0.00 | 0.00 | 61 | 1005.6 |
| 20260903113030 | 65 | 205 | 3.0 | 11.0 | 0.00 | 0.00 | 0.00 | 61 | 1005.6 |
| 20260903111533 | 65 | 200 | 5.0 | 11.0 | 0.00 | 0.00 | 0.00 | 61 | 1005.9 |
| 20260903110027 | 65 | 225 | 4.0 | 10.0 | 0.00 | 0.00 | 0.00 | 57 | 1005.9 |
| 20260903104527 | 65 | 205 | 3.0 | 9.0 | 0.00 | 0.00 | 0.00 | 61 | 1005.9 |
| 20260903103025 | 66 | 220 | 2.0 | 9.0 | 0.00 | 0.00 | 0.00 | 56 | 1006.0 |
| 20260903101527 | 66 | 200 | 3.0 | 9.0 | 0.00 | 0.00 | 0.00 | 57 | 1006.0 |
| 20260903100023 | 65 | 210 | 0.0 | 6.0 | 0.00 | 0.00 | 0.00 | 58 | 1006.1 |
| 20260903094521 | 65 | 200 | 0.0 | 0.0 | 0.00 | 0.00 | 0.00 | 57 | 1006.2 |
| 20260903093022 | 64 | 205 | 0.0 | 8.0 | 0.00 | 0.00 | 0.00 | 61 | 1006.4 |
| 20260903091512 | 62 | 210 | 0.0 | 0.0 | 0.00 | 0.00 | 0.00 | 65 | 1006.5 |
| 20260903090009 | 59 | 234 | 0.0 | 0.0 | 0.00 | 0.00 | 0.00 | 67 | 1006.6 |
| 20260903084518 | 59 | 237 | 0.0 | 0.0 | 0.00 | 0.00 | 0.00 | 65 | 1006.7 |
| 20260903083007 | 59 | 278 | 0.0 | 0.0 | 0.00 | 0.00 | 0.00 | 65 | 1006.7 |
| 20260903081504 | 59 | 335 | 0.0 | 0.0 | 0.00 | 0.00 | 0.00 | 64 | 1006.8 |
| 20260903080001 | 58 | 264 | 0.0 | 0.0 | 0.00 | 0.00 | 0.00 | 68 | 1006.8 |
| 20260903074559 | 57 | 332 | 0.0 | 5.0 | 0.00 | 0.00 | 0.00 | 66 | 1006.9 |
| 20260903073056 | 55 | 260 | 0.0 | 0.0 | 0.00 | 0.00 | 0.00 | 72 | 1007.0 |
| 20260903071556 | 55 | 265 | 0.0 | 0.0 | 0.00 | 0.00 | 0.00 | 69 | 1007.2 |
| 20260903070053 | 56 | 267 | 0.0 | 0.0 | 0.00 | 0.00 | 0.00 | 67 | 1007.3 |
| 20260903064553 | 56 | 275 | 0.0 | 6.0 | 0.00 | 0.00 | 0.00 | 70 | 1007.5 |
| 20260903063050 | 54 | 268 | 0.0 | 0.0 | 0.00 | 0.00 | 0.00 | 72 | 1007.4 |
| 20260903061542 | 54 | 252 | 0.0 | 0.0 | 0.00 | 0.00 | 0.00 | 73 | 1007.6 |
| 20260903060142 | 53 | 237 | 0.0 | 2.0 | 0.00 | 0.00 | 0.00 | 79 | 1007.6 |
| 20260903054539 | 51 | 235 | 0.0 | 0.0 | 0.00 | 0.00 | 0.00 | 82 | 1007.7 |
| 20260903053038 | 48 | 236 | 0.0 | 0.0 | 0.00 | 0.00 | 0.00 | 83 | 1007.6 |